Other Public Products
Issued by NWS Grand Forks, ND

Home | Current Version | Previous Version | Graphics & Text | Print | Product List | Glossary On
Versions: 1 2 3 4 5 6 7 8 9 10 11 12 13 14 15 16 17 18 19 20 21 22 23 24 25 26 27 28 29 30 31 32 33 34 35 36 37 38 39 40 41 42 43 44 45 46 47 48 49 50
000
FPUS83 KFGF 021831
OPUFGF
PRAIRIE TO PINES WEATHER ROUNDUP
NATIONAL WEATHER SERVICE EASTERN NORTH DAKOTA/GRAND FORKS ND
100 PM CDT TUE SEP 02 2014

 **SATELLITE DATA USED TO AUGMENT SKY COVER AT AUTOMATED STATIONS**
 *****  WEATHER ACROSS EASTERN NORTH DAKOTA  *****

CITY           SKY/WX    TMP DP  RH WIND       PRES   REMARKS
GRAND FORKS    MOSUNNY   67  56  67 S16       29.75R
6HR MIN TEMP:  51; 6HR MAX TEMP:  67; 6HR PCP:  0.04;

GRAND FORKS AF MOSUNNY   68  58  70 SW10      29.75S
GRAND CITY NWS   N/A     68 N/A N/A S10         N/A
BUXTON         NOT AVBL
DEVILS LAKE    SUNNY     72  54  53 SW15      29.72S
6HR MIN TEMP:  55; 6HR MAX TEMP:  72; 6HR PCP:  0.03;

FARGO          MOSUNNY   76  54  46 MISG      29.80F
6HR MIN TEMP:  51; 6HR MAX TEMP:  76;

WAHPETON ARPT  CLEAR     73  50  43 SW14      29.83F
$$

 *****  WEATHER ACROSS CENTRAL AND WESTERN NORTH DAKOTA  *****

CITY           SKY/WX    TMP DP  RH WIND       PRES   REMARKS
JAMESTOWN      SUNNY     74  56  53 S9        29.79F
6HR MIN TEMP:  52; 6HR MAX TEMP:  74;

BISMARCK       SUNNY     76  53  44 VRB3      29.80S
6HR MIN TEMP:  48; 6HR MAX TEMP:  76;

MINOT          SUNNY     75  45  34 SW20      29.71F
6HR MIN TEMP:  54; 6HR MAX TEMP:  75; 6HR PCP: TRACE;

MINOT AFB      SUNNY     74  51  44 W16       29.70F
6HR MIN TEMP:  53; 6HR MAX TEMP:  74;

GARRISON         N/A     74  46  36 W16G24    29.76S
6HR MIN TEMP:  55; 6HR MAX TEMP:  74; 6HR PCP:  0.01;

WILLISTON      SUNNY     72  45  37 NW15G23   29.78R
6HR MIN TEMP:  52; 6HR MAX TEMP:  73;

DICKINSON      SUNNY     71  46  40 W13G23    29.82F
6HR MIN TEMP:  54; 6HR MAX TEMP:  72;

HETTINGER      SUNNY     72  49  44 W14       29.86F
6HR MIN TEMP:  45; 6HR MAX TEMP:  73;

$$

 *****  OTHER OBSERVATIONS NORTHEAST NORTH DAKOTA  *****

CITY           SKY/WX    TMP DP  RH WIND       PRES   REMARKS
WALHALLA       FAIR      75  48  38 SW10      29.69F
LANGDON        FAIR      73  50  43 SW14G23   29.71F
CAVALIER       FAIR      72  55  56 S10       29.70F
GRAFTON        FAIR      73  54  49 SW9       29.71F
CANDO          FAIR      73  54  49 SW15G22   29.72S
FORT TOTTEN    NOT AVBL
ROLLA          FAIR      68  54  60 SW18      29.71F
RUGBY          FAIR      73  57  56 SW10G17   29.71F
 ***** THE ABOVE OBSERVATIONS ARE NON NWS ARE NOT QUALITY
        CONTROLLED AND MAY MIS-REPORT RAIN FOR SNOW...
$$

 *****  OTHER OBSERVATIONS SOUTHEAST NORTH DAKOTA *****

CITY           SKY/WX    TMP DP  RH WIND       PRES   REMARKS
COOPERSTOWN    NOT AVBL
VALLEY CITY    FAIR      73  54  49 SW7       29.80F
OAKES            N/A     75  59  57 S16       29.83F
GWINNER        CLEAR     75  55  50 SW14      29.84S
SHEYENNE NWR     N/A     77  55  46 SW8       29.95S
BUFFALO          N/A     74  47  39 W2          N/A
WYNDMERE       NOT AVBL
 ***** THE ABOVE OBSERVATIONS ARE NON NWS ARE NOT QUALITY
       CONTROLLED AND MAY MIS-REPORT RAIN FOR SNOW...
$$

  *****  WEATHER ACROSS NORTHERN MINNESOTA  *****

CITY           SKY/WX    TMP DP  RH WIND       PRES   REMARKS
FLAG ISLAND    MOSUNNY   68  48  49 SW12      29.73S
WARROAD        PTSUNNY   64  55  72 SW6       29.77S
ROSEAU           N/A     68  54  60 SW5       29.75F
HALLOCK        SUNNY     72  54  53 S13       29.72F
THF RVR FALLS  PTSUNNY   66  52  59 S9        29.76F
6HR MIN TEMP:  48; 6HR MAX TEMP:  64;

HALSTAD          N/A     69  54  58 S8          N/A
FOSSTON        MOSUNNY   68  55  64 CALM      29.81F
BAUDETTE       MOSUNNY   68  51  54 W3        29.76F
6HR MIN TEMP:  47; 6HR MAX TEMP:  70;

WASKISH        MOSUNNY   70  55  60 SW7       29.79S
CROOKSTON      PTSUNNY   66  57  72 S12       29.77F
$$
  *****  WEATHER ACROSS CENTRAL AND WEST MINNESOTA  *****

CITY           SKY/WX    TMP DP  RH WIND       PRES   REMARKS
BEMIDJI        MOSUNNY   73  50  45 SW14      29.80F
PARK RAPIDS    SUNNY     73  51  46 SW15      29.84S
6HR MIN TEMP:  51; 6HR MAX TEMP:  74;

WADENA         SUNNY     73  52  46 W10       29.85S
DETROIT LAKES  SUNNY     72  52  49 SW10      29.84F
MOORHEAD       MOSUNNY   73  54  49 W9        29.82S
FERGUS FALLS   SUNNY     73  48  40 W14       29.84S
ELBOW LAKE     FAIR      73  55  52 SW13G18   29.86S
6HR MIN TEMP:  49; 6HR MAX TEMP:  73;

MORRIS MN      SUNNY     79  55  44 S10       29.87S
STAPLES        SUNNY     73  48  40 W12G17    29.85F
WHEATON        SUNNY     73  55  53 SW10G16   29.87S
$$
  *****  WEATHER ELSEWHERE ACROSS MINNESOTA  *****

CITY           SKY/WX    TMP DP  RH WIND       PRES   REMARKS
DULUTH         MOSUNNY   74  46  36 W14G23    29.82F
6HR MIN TEMP:  51; 6HR MAX TEMP:  74;

INTRNTL FALLS  MOSUNNY   70  53  54 W10       29.76F
6HR MIN TEMP:  47; 6HR MAX TEMP:  70;

ELY            PTSUNNY   72  46  40 W12G22    29.78S
CLOQUET        SUNNY     73  46  38 SW12      29.84S
BRAINERD       SUNNY     72  51  47 SW14      29.85F
6HR MIN TEMP:  48; 6HR MAX TEMP:  73;

HIBBING        SUNNY     74  50  42 W12G21    29.80F
6HR MIN TEMP:  42; 6HR MAX TEMP:  74;

ALEXANDRIA     SUNNY     73  53  49 SW12      29.89F
6HR MIN TEMP:  53; 6HR MAX TEMP:  73;

SAINT CLOUD    SUNNY     77  50  38 SW9       29.88S
6HR MIN TEMP:  56; 6HR MAX TEMP:  77;

MINNEAPOLIS    MOSUNNY   75  50  41 W8        29.90S
6HR MIN TEMP:  62; 6HR MAX TEMP:  76;

$$

  *****  WEATHER ACROSS SOUTH DAKOTA  *****

CITY           SKY/WX    TMP DP  RH WIND       PRES   REMARKS
SIOUX FALLS    MOSUNNY   72  57  59 VRB6      29.96S
6HR MIN TEMP:  53; 6HR MAX TEMP:  72;

BROOKINGS      NOT AVBL
WATERTOWN      SUNNY     74  53  48 SW17G23   29.91F
6HR MIN TEMP:  50; 6HR MAX TEMP:  74;

HURON          SUNNY     76  50  40 W12G17    29.91F
6HR MIN TEMP:  50; 6HR MAX TEMP:  76;

SISSETON         N/A     76  52  43 W13       29.85S
ABERDEEN       SUNNY     74  58  57 S10       29.86F
6HR MIN TEMP:  46; 6HR MAX TEMP:  74;

MITCHELL         N/A    N/A N/A N/A MISG      29.94F
PIERRE         SUNNY     76  50  40 W8        29.88F
6HR MIN TEMP:  53; 6HR MAX TEMP:  76;

MOBRIDGE       SUNNY     77  50  38 SW12      29.83F
RAPID CITY     SUNNY     77  48  35 S10       29.91F
6HR MIN TEMP:  43; 6HR MAX TEMP:  77;

$$

  *****  SOME WEATHER IN NEARBY STATES *****

CITY           SKY/WX    TMP DP  RH WIND       PRES   REMARKS
GLASGOW MT     MOSUNNY   66  46  48 NW8       29.81F
6HR MIN TEMP:  50; 6HR MAX TEMP:  67;

GREAT FALLS MT CLOUDY    66  39  37 SW15G21   29.84F
6HR MIN TEMP:  48; 6HR MAX TEMP:  66;

CHEYENNE WY    SUNNY     73  39  29 SW14G26   30.12F
6HR MIN TEMP:  46; 6HR MAX TEMP:  74;

SCOTTSBLUFF NE SUNNY     82  44  26 SW12      29.99F
6HR MIN TEMP:  42; 6HR MAX TEMP:  82;

OMAHA NE       MOSUNNY   75  56  51 S3        29.99F
6HR MIN TEMP:  57; 6HR MAX TEMP:  75;

DES MOINES IA  MOSUNNY   77  57  50 VRB3      29.96S
6HR MIN TEMP:  61; 6HR MAX TEMP:  78;

DAVENPORT IA   SUNNY     76  61  59 VRB3      29.94F
6HR MIN TEMP:  59; 6HR MAX TEMP:  77;

CHICAGO IL     PTSUNNY   80  56  43 W9        29.89F
6HR MIN TEMP:  67; 6HR MAX TEMP:  80;

EAU CLAIRE WI  MOSUNNY   74  57  55 VRB7      29.88S
6HR MIN TEMP:  60; 6HR MAX TEMP:  75;

LA CROSSE WI   SUNNY     77  57  50 W8        29.90S
6HR MIN TEMP:  62; 6HR MAX TEMP:  77;

$$

  *****  SOME NATIONAL WEATHER *****

CITY           SKY/WX    TMP DP  RH WIND       PRES   REMARKS



USA.gov is the U.S. government's official web portal to all federal, state and local government web resources and services.